Year,Month,Day,Hour,Minute,Value (Times are PST for temperature in C)
2014,05,31,00,00,11.70
2014,05,31,00,01,11.60
2014,05,31,00,02,11.60
2014,05,31,00,03,11.60
2014,05,31,00,04,11.60
2014,05,31,00,05,11.60
2014,05,31,00,06,11.60
2014,05,31,00,07,11.60
2014,05,31,00,08,11.60
2014,05,31,00,09,11.60
2014,05,31,00,10,11.60
2014,05,31,00,11,11.60
2014,05,31,00,12,11.60
2014,05,31,00,13,11.60
2014,05,31,00,14,11.60
2014,05,31,00,15,11.60
2014,05,31,00,16,11.60
2014,05,31,00,17,11.60
2014,05,31,00,18,11.60
2014,05,31,00,19,11.50
2014,05,31,00,20,11.40
2014,05,31,00,21,11.40
2014,05,31,00,22,11.40
2014,05,31,00,23,11.40
2014,05,31,00,24,11.40
2014,05,31,00,25,11.40
2014,05,31,00,26,11.40
2014,05,31,00,27,11.40
2014,05,31,00,28,11.40
2014,05,31,00,29,11.40
2014,05,31,00,30,11.40
2014,05,31,00,31,11.40
2014,05,31,00,32,11.30
2014,05,31,00,33,11.30
2014,05,31,00,34,11.30
2014,05,31,00,35,11.30
2014,05,31,00,36,11.30
2014,05,31,00,37,11.20
2014,05,31,00,38,11.20
2014,05,31,00,39,11.20
2014,05,31,00,40,11.20
2014,05,31,00,41,11.10
2014,05,31,00,42,11.10
2014,05,31,00,43,11.10
2014,05,31,00,44,11.10
2014,05,31,00,45,11.10
2014,05,31,00,46,11.10
2014,05,31,00,47,11.10
2014,05,31,00,48,10.90
2014,05,31,00,49,10.90
2014,05,31,00,50,10.90
2014,05,31,00,51,10.90
2014,05,31,00,52,10.90
2014,05,31,00,53,10.80
2014,05,31,00,54,10.80
2014,05,31,00,55,10.70
2014,05,31,00,56,10.70
2014,05,31,00,57,10.70
2014,05,31,00,58,10.60
2014,05,31,00,59,10.60
2014,05,31,01,00,10.60
2014,05,31,01,01,10.60
2014,05,31,01,02,10.60
2014,05,31,01,03,10.60
2014,05,31,01,04,10.50
2014,05,31,01,05,10.40
2014,05,31,01,06,10.40
2014,05,31,01,07,10.40
2014,05,31,01,08,10.40
2014,05,31,01,09,10.40
2014,05,31,01,10,10.40
2014,05,31,01,11,10.40
2014,05,31,01,12,10.40
2014,05,31,01,13,10.30
2014,05,31,01,14,10.30
2014,05,31,01,15,10.30
2014,05,31,01,16,10.20
2014,05,31,01,17,10.20
2014,05,31,01,18,10.20
2014,05,31,01,19,10.10
2014,05,31,01,20,10.10
2014,05,31,01,21,10.10
2014,05,31,01,22,10.10
2014,05,31,01,23,10.00
2014,05,31,01,24,9.90
2014,05,31,01,25,9.90
2014,05,31,01,26,9.90
2014,05,31,01,27,9.90
2014,05,31,01,28,9.90
2014,05,31,01,29,9.80
2014,05,31,01,30,9.80
2014,05,31,01,31,9.80
2014,05,31,01,32,9.80
2014,05,31,01,33,9.70
2014,05,31,01,34,9.70
2014,05,31,01,35,9.70
2014,05,31,01,36,9.70
2014,05,31,01,37,9.70
2014,05,31,01,38,9.70
2014,05,31,01,39,9.70
2014,05,31,01,40,9.70
2014,05,31,01,41,9.70
2014,05,31,01,42,9.70
2014,05,31,01,43,9.60
2014,05,31,01,44,9.60
2014,05,31,01,45,9.60
2014,05,31,01,46,9.60
2014,05,31,01,47,9.60
2014,05,31,01,48,9.60
2014,05,31,01,49,9.50
2014,05,31,01,50,9.50
2014,05,31,01,51,9.50
2014,05,31,01,52,9.50
2014,05,31,01,53,9.50
2014,05,31,01,54,9.40
2014,05,31,01,55,9.40
2014,05,31,01,56,9.40
2014,05,31,01,57,9.40
2014,05,31,01,58,9.40
2014,05,31,01,59,9.40
2014,05,31,02,00,9.30
2014,05,31,02,01,9.30
2014,05,31,02,02,9.30
2014,05,31,02,03,9.30
2014,05,31,02,04,9.20
2014,05,31,02,05,9.20
2014,05,31,02,06,9.20
2014,05,31,02,07,9.20
2014,05,31,02,08,9.20
2014,05,31,02,09,9.20
2014,05,31,02,10,9.20
2014,05,31,02,11,9.20
2014,05,31,02,12,9.20
2014,05,31,02,13,9.20
2014,05,31,02,14,9.20
2014,05,31,02,15,9.20
2014,05,31,02,16,9.20
2014,05,31,02,17,9.20
2014,05,31,02,18,9.20
2014,05,31,02,19,9.20
2014,05,31,02,20,9.20
2014,05,31,02,21,9.20
2014,05,31,02,22,9.20
2014,05,31,02,23,9.20
2014,05,31,02,24,9.20
2014,05,31,02,25,9.20
2014,05,31,02,26,9.20
2014,05,31,02,27,9.20
2014,05,31,02,28,9.20
2014,05,31,02,29,9.20
2014,05,31,02,30,9.20
2014,05,31,02,31,9.10
2014,05,31,02,32,9.10
2014,05,31,02,33,9.10
2014,05,31,02,34,9.10
2014,05,31,02,35,9.00
2014,05,31,02,36,9.00
2014,05,31,02,37,9.00
2014,05,31,02,38,9.00
2014,05,31,02,39,9.00
2014,05,31,02,40,9.00
2014,05,31,02,41,9.00
2014,05,31,02,42,8.90
2014,05,31,02,43,8.90
2014,05,31,02,44,8.90
2014,05,31,02,45,8.90
2014,05,31,02,46,8.80
2014,05,31,02,47,8.80
2014,05,31,02,48,8.80
2014,05,31,02,49,8.80
2014,05,31,02,50,8.80
2014,05,31,02,51,8.80
2014,05,31,02,52,8.70
2014,05,31,02,53,8.70
2014,05,31,02,54,8.70
2014,05,31,02,55,8.70
2014,05,31,02,56,8.70
2014,05,31,02,57,8.70
2014,05,31,02,58,8.70
2014,05,31,02,59,8.70
2014,05,31,03,00,8.70
2014,05,31,03,01,8.70
2014,05,31,03,02,8.70
2014,05,31,03,03,8.70
2014,05,31,03,04,8.70
2014,05,31,03,05,8.70
2014,05,31,03,06,8.70
2014,05,31,03,07,8.70
2014,05,31,03,08,8.70
2014,05,31,03,09,8.70
2014,05,31,03,10,8.70
2014,05,31,03,11,8.70
2014,05,31,03,12,8.70
2014,05,31,03,13,8.70
2014,05,31,03,14,8.70
2014,05,31,03,15,8.70
2014,05,31,03,16,8.70
2014,05,31,03,17,8.70
2014,05,31,03,18,8.70
2014,05,31,03,19,8.70
2014,05,31,03,20,8.70
2014,05,31,03,21,8.60
2014,05,31,03,22,8.60
2014,05,31,03,23,8.60
2014,05,31,03,24,8.60
2014,05,31,03,25,8.50
2014,05,31,03,26,8.50
2014,05,31,03,27,8.50
2014,05,31,03,28,8.50
2014,05,31,03,29,8.50
2014,05,31,03,30,8.50
2014,05,31,03,31,8.50
2014,05,31,03,32,8.50
2014,05,31,03,33,8.50
2014,05,31,03,34,8.50
2014,05,31,03,35,8.40
2014,05,31,03,36,8.40
2014,05,31,03,37,8.40
2014,05,31,03,38,8.40
2014,05,31,03,39,8.40
2014,05,31,03,40,8.50
2014,05,31,03,41,8.50
2014,05,31,03,42,8.50
2014,05,31,03,43,8.50
2014,05,31,03,44,8.50
2014,05,31,03,45,8.50
2014,05,31,03,46,8.50
2014,05,31,03,47,8.50
2014,05,31,03,48,8.50
2014,05,31,03,49,8.40
2014,05,31,03,50,8.40
2014,05,31,03,51,8.40
2014,05,31,03,52,8.40
2014,05,31,03,53,8.40
2014,05,31,03,54,8.40
2014,05,31,03,55,8.40
2014,05,31,03,56,8.40
2014,05,31,03,57,8.40
2014,05,31,03,58,8.40
2014,05,31,03,59,8.30
2014,05,31,04,00,8.30
2014,05,31,04,01,8.30
2014,05,31,04,02,8.30
2014,05,31,04,03,8.30
2014,05,31,04,04,8.30
2014,05,31,04,05,8.20
2014,05,31,04,06,8.20
2014,05,31,04,07,8.20
2014,05,31,04,08,8.20
2014,05,31,04,09,8.20
2014,05,31,04,10,8.20
2014,05,31,04,11,8.20
2014,05,31,04,12,8.20
2014,05,31,04,13,8.20
2014,05,31,04,14,8.20
2014,05,31,04,15,8.10
2014,05,31,04,16,8.10
2014,05,31,04,17,8.10
2014,05,31,04,18,8.10
2014,05,31,04,19,8.10
2014,05,31,04,20,8.10
2014,05,31,04,21,8.20
2014,05,31,04,22,8.20
2014,05,31,04,23,8.20
2014,05,31,04,24,8.20
2014,05,31,04,25,8.20
2014,05,31,04,26,8.20
2014,05,31,04,27,8.20
2014,05,31,04,28,8.20
2014,05,31,04,29,8.20
2014,05,31,04,30,8.20
2014,05,31,04,31,8.20
2014,05,31,04,32,8.20
2014,05,31,04,33,8.20
2014,05,31,04,34,8.20
2014,05,31,04,35,8.30
2014,05,31,04,36,8.30
2014,05,31,04,37,8.30
2014,05,31,04,38,8.40
2014,05,31,04,39,8.40
2014,05,31,04,40,8.40
2014,05,31,04,41,8.40
2014,05,31,04,42,8.40
2014,05,31,04,43,8.40
2014,05,31,04,44,8.40
2014,05,31,04,45,8.40
2014,05,31,04,46,8.40
2014,05,31,04,47,8.50
2014,05,31,04,48,8.50
2014,05,31,04,49,8.50
2014,05,31,04,50,8.50
2014,05,31,04,51,8.50
2014,05,31,04,52,8.50
2014,05,31,04,53,8.50
2014,05,31,04,54,8.50
2014,05,31,04,55,8.50
2014,05,31,04,56,8.50
2014,05,31,04,57,8.50
2014,05,31,04,58,8.50
2014,05,31,04,59,8.50
2014,05,31,05,00,8.50
2014,05,31,05,01,8.50
2014,05,31,05,02,8.50
2014,05,31,05,03,8.50
2014,05,31,05,04,8.50
2014,05,31,05,05,8.50
2014,05,31,05,06,8.50
2014,05,31,05,07,8.40
2014,05,31,05,08,8.40
2014,05,31,05,09,8.40
2014,05,31,05,10,8.40
2014,05,31,05,11,8.40
2014,05,31,05,12,8.40
2014,05,31,05,13,8.40
2014,05,31,05,14,8.40
2014,05,31,05,15,8.30
2014,05,31,05,16,8.30
2014,05,31,05,17,8.30
2014,05,31,05,18,8.30
2014,05,31,05,19,8.30
2014,05,31,05,20,8.30
2014,05,31,05,21,8.30
2014,05,31,05,22,8.30
2014,05,31,05,23,8.30
2014,05,31,05,24,8.30
2014,05,31,05,25,8.30
2014,05,31,05,26,8.30
2014,05,31,05,27,8.30
2014,05,31,05,28,8.30
2014,05,31,05,29,8.30
2014,05,31,05,30,8.30
2014,05,31,05,31,8.30
2014,05,31,05,32,8.30
2014,05,31,05,33,8.30
2014,05,31,05,34,8.30
2014,05,31,05,35,8.30
2014,05,31,05,36,8.30
2014,05,31,05,37,8.30
2014,05,31,05,38,8.30
2014,05,31,05,39,8.30
2014,05,31,05,40,8.20
2014,05,31,05,41,8.20
2014,05,31,05,42,8.20
2014,05,31,05,43,8.20
2014,05,31,05,44,8.20
2014,05,31,05,45,8.20
2014,05,31,05,46,8.20
2014,05,31,05,47,8.20
2014,05,31,05,48,8.20
2014,05,31,05,49,8.20
2014,05,31,05,50,8.20
2014,05,31,05,51,8.20
2014,05,31,05,52,8.20
2014,05,31,05,53,8.10
2014,05,31,05,54,8.10
2014,05,31,05,55,8.10
2014,05,31,05,56,8.10
2014,05,31,05,57,8.00
2014,05,31,05,58,8.00
2014,05,31,05,59,8.00
2014,05,31,06,00,8.00
2014,05,31,06,01,8.00
2014,05,31,06,02,8.00
2014,05,31,06,03,8.00
2014,05,31,06,04,8.00
2014,05,31,06,05,8.00
2014,05,31,06,06,8.00
2014,05,31,06,07,8.00
2014,05,31,06,08,8.10
2014,05,31,06,09,8.10
2014,05,31,06,10,8.10
2014,05,31,06,11,8.10
2014,05,31,06,12,8.10
2014,05,31,06,13,8.10
2014,05,31,06,14,8.10
2014,05,31,06,15,8.10
2014,05,31,06,16,8.20
2014,05,31,06,17,8.20
2014,05,31,06,18,8.20
2014,05,31,06,19,8.20
2014,05,31,06,20,8.20
2014,05,31,06,21,8.20
2014,05,31,06,22,8.20
2014,05,31,06,23,8.20
2014,05,31,06,24,8.20
2014,05,31,06,25,8.20
2014,05,31,06,26,8.30
2014,05,31,06,27,8.30
2014,05,31,06,28,8.30
2014,05,31,06,29,8.30
2014,05,31,06,30,8.40
2014,05,31,06,31,8.40
2014,05,31,06,32,8.50
2014,05,31,06,33,8.50
2014,05,31,06,34,8.60
2014,05,31,06,35,8.60
2014,05,31,06,36,8.70
2014,05,31,06,37,8.70
2014,05,31,06,38,8.70
2014,05,31,06,39,8.80
2014,05,31,06,40,8.80
2014,05,31,06,41,8.80
2014,05,31,06,42,8.90
2014,05,31,06,43,9.00
2014,05,31,06,44,9.00
2014,05,31,06,45,9.10
2014,05,31,06,46,9.20
2014,05,31,06,47,9.20
2014,05,31,06,48,9.30
2014,05,31,06,49,9.30
2014,05,31,06,50,9.40
2014,05,31,06,51,9.40
2014,05,31,06,52,9.50
2014,05,31,06,53,9.50
2014,05,31,06,54,9.60
2014,05,31,06,55,9.60
2014,05,31,06,56,9.70
2014,05,31,06,57,9.70
2014,05,31,06,58,9.70
2014,05,31,06,59,9.80
2014,05,31,07,00,9.90
2014,05,31,07,01,9.90
2014,05,31,07,02,10.00
2014,05,31,07,03,10.10
2014,05,31,07,04,10.10
2014,05,31,07,05,10.10
2014,05,31,07,06,10.20
2014,05,31,07,07,10.20
2014,05,31,07,08,10.20
2014,05,31,07,09,10.30
2014,05,31,07,10,10.30
2014,05,31,07,11,10.40
2014,05,31,07,12,10.50
2014,05,31,07,13,10.60
2014,05,31,07,14,10.60
2014,05,31,07,15,10.60
2014,05,31,07,16,10.60
2014,05,31,07,17,10.60
2014,05,31,07,18,10.70
2014,05,31,07,19,10.70
2014,05,31,07,20,10.80
2014,05,31,07,21,10.80
2014,05,31,07,22,10.80
2014,05,31,07,23,10.90
2014,05,31,07,24,10.90
2014,05,31,07,25,10.90
2014,05,31,07,26,11.00
2014,05,31,07,27,11.10
2014,05,31,07,28,11.20
2014,05,31,07,29,11.20
2014,05,31,07,30,11.30
2014,05,31,07,31,11.40
2014,05,31,07,32,11.40
2014,05,31,07,33,11.50
2014,05,31,07,34,11.60
2014,05,31,07,35,11.60
2014,05,31,07,36,11.70
2014,05,31,07,37,11.70
2014,05,31,07,38,11.80
2014,05,31,07,39,11.80
2014,05,31,07,40,11.80
2014,05,31,07,41,11.90
2014,05,31,07,42,11.90
2014,05,31,07,43,11.90
2014,05,31,07,44,12.00
2014,05,31,07,45,12.00
2014,05,31,07,46,12.00
2014,05,31,07,47,12.10
2014,05,31,07,48,12.10
2014,05,31,07,49,12.10
2014,05,31,07,50,12.20
2014,05,31,07,51,12.20
2014,05,31,07,52,12.30
2014,05,31,07,53,12.30
2014,05,31,07,54,12.30
2014,05,31,07,55,12.40
2014,05,31,07,56,12.40
2014,05,31,07,57,12.50
2014,05,31,07,58,12.50
2014,05,31,07,59,12.60
2014,05,31,08,00,12.60
2014,05,31,08,01,12.70
2014,05,31,08,02,12.70
2014,05,31,08,03,12.80
2014,05,31,08,04,12.70
2014,05,31,08,05,12.80
2014,05,31,08,06,12.80
2014,05,31,08,07,12.90
2014,05,31,08,08,13.00
2014,05,31,08,09,13.00
2014,05,31,08,10,13.10
2014,05,31,08,11,13.20
2014,05,31,08,12,13.20
2014,05,31,08,13,13.30
2014,05,31,08,14,13.30
2014,05,31,08,15,13.40
2014,05,31,08,16,13.50
2014,05,31,08,17,13.50
2014,05,31,08,18,13.60
2014,05,31,08,19,13.60
2014,05,31,08,20,13.70
2014,05,31,08,21,13.80
2014,05,31,08,22,13.90
2014,05,31,08,23,13.90
2014,05,31,08,24,14.00
2014,05,31,08,25,14.10
2014,05,31,08,26,14.20
2014,05,31,08,27,14.20
2014,05,31,08,28,14.30
2014,05,31,08,29,14.40
2014,05,31,08,30,14.50
2014,05,31,08,31,14.60
2014,05,31,08,32,14.70
2014,05,31,08,33,14.70
2014,05,31,08,34,14.80
2014,05,31,08,35,14.80
2014,05,31,08,36,14.90
2014,05,31,08,37,15.00
2014,05,31,08,38,15.00
2014,05,31,08,39,15.10
2014,05,31,08,40,15.20
2014,05,31,08,41,15.20
2014,05,31,08,42,15.30
2014,05,31,08,43,15.30
2014,05,31,08,44,15.40
2014,05,31,08,45,15.50
2014,05,31,08,46,15.50
2014,05,31,08,47,15.50
2014,05,31,08,48,15.60
2014,05,31,08,49,15.60
2014,05,31,08,50,15.60
2014,05,31,08,51,15.60
2014,05,31,08,52,15.70
2014,05,31,08,53,15.80
2014,05,31,08,54,15.80
2014,05,31,08,55,15.80
2014,05,31,08,56,15.80
2014,05,31,08,57,15.80
2014,05,31,08,58,15.90
2014,05,31,08,59,15.90
2014,05,31,09,00,15.90
2014,05,31,09,01,16.00
2014,05,31,09,02,16.10
2014,05,31,09,03,16.10
2014,05,31,09,04,16.10
2014,05,31,09,05,16.10
2014,05,31,09,06,16.10
2014,05,31,09,07,16.10
2014,05,31,09,08,16.10
2014,05,31,09,09,16.10
2014,05,31,09,10,16.10
2014,05,31,09,11,16.10
2014,05,31,09,12,16.10
2014,05,31,09,13,16.10
2014,05,31,09,14,16.20
2014,05,31,09,15,16.20
2014,05,31,09,16,16.30
2014,05,31,09,17,16.30
2014,05,31,09,18,16.30
2014,05,31,09,19,16.40
2014,05,31,09,20,16.40
2014,05,31,09,21,16.40
2014,05,31,09,22,16.40
2014,05,31,09,23,16.40
2014,05,31,09,24,16.40
2014,05,31,09,25,16.40
2014,05,31,09,26,16.50
2014,05,31,09,27,16.60
2014,05,31,09,28,16.70
2014,05,31,09,29,16.70
2014,05,31,09,30,16.70
2014,05,31,09,31,16.70
2014,05,31,09,32,16.80
2014,05,31,09,33,16.80
2014,05,31,09,34,16.80
2014,05,31,09,35,16.80
2014,05,31,09,36,16.80
2014,05,31,09,37,16.80
2014,05,31,09,38,16.90
2014,05,31,09,39,16.90
2014,05,31,09,40,16.90
2014,05,31,09,41,17.00
2014,05,31,09,42,16.90
2014,05,31,09,43,16.90
2014,05,31,09,44,16.80
2014,05,31,09,45,16.70
2014,05,31,09,46,16.70
2014,05,31,09,47,16.70
2014,05,31,09,48,16.60
2014,05,31,09,49,16.60
2014,05,31,09,50,16.70
2014,05,31,09,51,16.70
2014,05,31,09,52,16.70
2014,05,31,09,53,16.70
2014,05,31,09,54,16.80
2014,05,31,09,55,16.90
2014,05,31,09,56,16.90
2014,05,31,09,57,16.90
2014,05,31,09,58,16.90
2014,05,31,09,59,16.90
2014,05,31,10,00,16.90
2014,05,31,10,01,16.90
2014,05,31,10,02,16.90
2014,05,31,10,03,16.90
2014,05,31,10,04,16.90
2014,05,31,10,05,16.80
2014,05,31,10,06,16.90
2014,05,31,10,07,17.00
2014,05,31,10,08,17.00
2014,05,31,10,09,17.10
2014,05,31,10,10,17.10
2014,05,31,10,11,17.20
2014,05,31,10,12,17.20
2014,05,31,10,13,17.30
2014,05,31,10,14,17.30
2014,05,31,10,15,17.30
2014,05,31,10,16,17.30
2014,05,31,10,17,17.30
2014,05,31,10,18,17.30
2014,05,31,10,19,17.40
2014,05,31,10,20,17.50
2014,05,31,10,21,17.50
2014,05,31,10,22,17.60
2014,05,31,10,23,17.70
2014,05,31,10,24,17.70
2014,05,31,10,25,17.80
2014,05,31,10,26,17.90
2014,05,31,10,27,17.90
2014,05,31,10,28,17.90
2014,05,31,10,29,17.90
2014,05,31,10,30,18.00
2014,05,31,10,31,18.10
2014,05,31,10,32,18.20
2014,05,31,10,33,18.20
2014,05,31,10,34,18.20
2014,05,31,10,35,18.30
2014,05,31,10,36,18.40
2014,05,31,10,37,18.30
2014,05,31,10,38,18.40
2014,05,31,10,39,18.40
2014,05,31,10,40,18.50
2014,05,31,10,41,18.50
2014,05,31,10,42,18.40
2014,05,31,10,43,18.40
2014,05,31,10,44,18.50
2014,05,31,10,45,18.50
2014,05,31,10,46,18.50
2014,05,31,10,47,18.50
2014,05,31,10,48,18.40
2014,05,31,10,49,18.40
2014,05,31,10,50,18.30
2014,05,31,10,51,18.30
2014,05,31,10,52,18.20
2014,05,31,10,53,18.30
2014,05,31,10,54,18.40
2014,05,31,10,55,18.40
2014,05,31,10,56,18.50
2014,05,31,10,57,18.50
2014,05,31,10,58,18.50
2014,05,31,10,59,18.60
2014,05,31,11,00,18.70
2014,05,31,11,01,18.70
2014,05,31,11,02,18.90
2014,05,31,11,03,18.90
2014,05,31,11,04,18.90
2014,05,31,11,05,19.00
2014,05,31,11,06,19.10
2014,05,31,11,07,19.10
2014,05,31,11,08,19.10
2014,05,31,11,09,19.10
2014,05,31,11,10,19.10
2014,05,31,11,11,19.10
2014,05,31,11,12,19.10
2014,05,31,11,13,19.20
2014,05,31,11,14,19.20
2014,05,31,11,15,19.30
2014,05,31,11,16,19.40
2014,05,31,11,17,19.40
2014,05,31,11,18,19.50
2014,05,31,11,19,19.50
2014,05,31,11,20,19.40
2014,05,31,11,21,19.30
2014,05,31,11,22,19.30
2014,05,31,11,23,19.30
2014,05,31,11,24,19.30
2014,05,31,11,25,19.30
2014,05,31,11,26,19.40
2014,05,31,11,27,19.40
2014,05,31,11,28,19.50
2014,05,31,11,29,19.50
2014,05,31,11,30,19.50
2014,05,31,11,31,19.50
2014,05,31,11,32,19.50
2014,05,31,11,33,19.50
2014,05,31,11,34,19.50
2014,05,31,11,35,19.40
2014,05,31,11,36,19.50
2014,05,31,11,37,19.60
2014,05,31,11,38,19.60
2014,05,31,11,39,19.60
2014,05,31,11,40,19.60
2014,05,31,11,41,19.60
2014,05,31,11,42,19.60
2014,05,31,11,43,19.60
2014,05,31,11,44,19.60
2014,05,31,11,45,19.60
2014,05,31,11,46,19.50
2014,05,31,11,47,19.60
2014,05,31,11,48,19.70
2014,05,31,11,49,19.80
2014,05,31,11,50,19.80
2014,05,31,11,51,19.80
2014,05,31,11,52,19.80
2014,05,31,11,53,19.70
2014,05,31,11,54,19.70
2014,05,31,11,55,19.70
2014,05,31,11,56,19.70
2014,05,31,11,57,19.70
2014,05,31,11,58,19.70
2014,05,31,11,59,19.70
2014,05,31,12,00,19.70
2014,05,31,12,01,19.80
2014,05,31,12,02,19.80
2014,05,31,12,03,19.80
2014,05,31,12,04,19.90
2014,05,31,12,05,19.90
2014,05,31,12,06,19.90
2014,05,31,12,07,19.90
2014,05,31,12,08,19.90
2014,05,31,12,09,19.90
2014,05,31,12,10,19.90
2014,05,31,12,11,19.90
2014,05,31,12,12,20.00
2014,05,31,12,13,20.10
2014,05,31,12,14,20.10
2014,05,31,12,15,20.10
2014,05,31,12,16,20.10
2014,05,31,12,17,19.90
2014,05,31,12,18,19.90
2014,05,31,12,19,19.90
2014,05,31,12,20,19.90
2014,05,31,12,21,19.70
2014,05,31,12,22,19.60
2014,05,31,12,23,19.50
2014,05,31,12,24,19.40
2014,05,31,12,25,19.40
2014,05,31,12,26,19.30
2014,05,31,12,27,19.20
2014,05,31,12,28,19.30
2014,05,31,12,29,19.30
2014,05,31,12,30,19.30
2014,05,31,12,31,19.40
2014,05,31,12,32,19.40
2014,05,31,12,33,19.40
2014,05,31,12,34,19.40
2014,05,31,12,35,19.50
2014,05,31,12,36,19.60
2014,05,31,12,37,19.70
2014,05,31,12,38,19.80
2014,05,31,12,39,20.00
2014,05,31,12,40,20.10
2014,05,31,12,41,20.20
2014,05,31,12,42,20.30
2014,05,31,12,43,20.50
2014,05,31,12,44,20.50
2014,05,31,12,45,20.60
2014,05,31,12,46,20.70
2014,05,31,12,47,20.70
2014,05,31,12,48,20.80
2014,05,31,12,49,20.80
2014,05,31,12,50,20.80
2014,05,31,12,51,20.80
2014,05,31,12,52,20.80
2014,05,31,12,53,20.90
2014,05,31,12,54,20.90
2014,05,31,12,55,20.90
2014,05,31,12,56,20.90
2014,05,31,12,57,20.90
2014,05,31,12,58,20.90
2014,05,31,12,59,21.00
2014,05,31,13,00,21.00
2014,05,31,13,01,21.10
2014,05,31,13,02,21.10
2014,05,31,13,03,21.20
2014,05,31,13,04,21.20
2014,05,31,13,05,21.20
2014,05,31,13,06,21.20
2014,05,31,13,07,21.20
2014,05,31,13,08,21.20
2014,05,31,13,09,21.30
2014,05,31,13,10,21.30
2014,05,31,13,11,21.30
2014,05,31,13,12,21.40
2014,05,31,13,13,21.50
2014,05,31,13,14,21.60
2014,05,31,13,15,21.60
2014,05,31,13,16,21.60
2014,05,31,13,17,21.60
2014,05,31,13,18,21.60
2014,05,31,13,19,21.50
2014,05,31,13,20,21.40
2014,05,31,13,21,21.40
2014,05,31,13,22,21.50
2014,05,31,13,23,21.60
2014,05,31,13,24,21.60
2014,05,31,13,25,21.50
2014,05,31,13,26,21.40
2014,05,31,13,27,21.40
2014,05,31,13,28,21.30
2014,05,31,13,29,21.30
2014,05,31,13,30,21.30
2014,05,31,13,31,21.20
2014,05,31,13,32,21.00
2014,05,31,13,33,21.00
2014,05,31,13,34,20.90
2014,05,31,13,35,20.90
2014,05,31,13,36,21.00
2014,05,31,13,37,21.00
2014,05,31,13,38,21.00
2014,05,31,13,39,21.00
2014,05,31,13,40,20.90
2014,05,31,13,41,21.00
2014,05,31,13,42,21.00
2014,05,31,13,43,21.00
2014,05,31,13,44,21.00
2014,05,31,13,45,21.00
2014,05,31,13,46,20.90
2014,05,31,13,47,20.90
2014,05,31,13,48,20.90
2014,05,31,13,49,20.90
2014,05,31,13,50,20.80
2014,05,31,13,51,20.80
2014,05,31,13,52,20.90
2014,05,31,13,53,20.90
2014,05,31,13,54,20.90
2014,05,31,13,55,20.90
2014,05,31,13,56,20.90
2014,05,31,13,57,20.90
2014,05,31,13,58,20.90
2014,05,31,13,59,21.00
2014,05,31,14,00,21.00
2014,05,31,14,01,21.00
2014,05,31,14,02,21.10
2014,05,31,14,03,21.10
2014,05,31,14,04,21.10
2014,05,31,14,05,21.20
2014,05,31,14,06,21.30
2014,05,31,14,07,21.30
2014,05,31,14,08,21.40
2014,05,31,14,09,21.40
2014,05,31,14,10,21.40
2014,05,31,14,11,21.40
2014,05,31,14,12,21.40
2014,05,31,14,13,21.30
2014,05,31,14,14,21.30
2014,05,31,14,15,21.40
2014,05,31,14,16,21.40
2014,05,31,14,17,21.30
2014,05,31,14,18,21.30
2014,05,31,14,19,21.20
2014,05,31,14,20,21.20
2014,05,31,14,21,21.30
2014,05,31,14,22,21.30
2014,05,31,14,23,21.30
2014,05,31,14,24,21.40
2014,05,31,14,25,21.40
2014,05,31,14,26,21.40
2014,05,31,14,27,21.50
2014,05,31,14,28,21.60
2014,05,31,14,29,21.60
2014,05,31,14,30,21.70
2014,05,31,14,31,21.80
2014,05,31,14,32,21.80
2014,05,31,14,33,21.80
2014,05,31,14,34,21.80
2014,05,31,14,35,21.90
2014,05,31,14,36,21.90
2014,05,31,14,37,21.90
2014,05,31,14,38,21.80
2014,05,31,14,39,21.90
2014,05,31,14,40,21.90
2014,05,31,14,41,22.00
2014,05,31,14,42,22.10
2014,05,31,14,43,22.10
2014,05,31,14,44,22.20
2014,05,31,14,45,22.20
2014,05,31,14,46,22.30
2014,05,31,14,47,22.30
2014,05,31,14,48,22.40
2014,05,31,14,49,22.40
2014,05,31,14,50,22.40
2014,05,31,14,51,22.40
2014,05,31,14,52,22.40
2014,05,31,14,53,22.40
2014,05,31,14,54,22.40
2014,05,31,14,55,22.30
2014,05,31,14,56,22.40
2014,05,31,14,57,22.40
2014,05,31,14,58,22.50
2014,05,31,14,59,22.50
2014,05,31,15,00,22.50
2014,05,31,15,01,22.40
2014,05,31,15,02,22.40
2014,05,31,15,03,22.30
2014,05,31,15,04,22.30
2014,05,31,15,05,22.30
2014,05,31,15,06,22.20
2014,05,31,15,07,22.20
2014,05,31,15,08,22.20
2014,05,31,15,09,22.10
2014,05,31,15,10,22.10
2014,05,31,15,11,22.10
2014,05,31,15,12,22.10
2014,05,31,15,13,22.10
2014,05,31,15,14,22.10
2014,05,31,15,15,22.00
2014,05,31,15,16,22.10
2014,05,31,15,17,22.10
2014,05,31,15,18,22.20
2014,05,31,15,19,22.20
2014,05,31,15,20,22.20
2014,05,31,15,21,22.20
2014,05,31,15,22,22.30
2014,05,31,15,23,22.30
2014,05,31,15,24,22.20
2014,05,31,15,25,22.20
2014,05,31,15,26,22.10
2014,05,31,15,27,22.00
2014,05,31,15,28,22.00
2014,05,31,15,29,22.00
2014,05,31,15,30,22.00
2014,05,31,15,31,21.90
2014,05,31,15,32,21.80
2014,05,31,15,33,21.70
2014,05,31,15,34,21.60
2014,05,31,15,35,21.60
2014,05,31,15,36,21.50
2014,05,31,15,37,21.30
2014,05,31,15,38,21.30
2014,05,31,15,39,21.20
2014,05,31,15,40,21.10
2014,05,31,15,41,21.00
2014,05,31,15,42,21.00
2014,05,31,15,43,21.00
2014,05,31,15,44,21.00
2014,05,31,15,45,21.00
2014,05,31,15,46,21.00
2014,05,31,15,47,21.10
2014,05,31,15,48,21.10
2014,05,31,15,49,21.10
2014,05,31,15,50,21.10
2014,05,31,15,51,21.10
2014,05,31,15,52,21.10
2014,05,31,15,53,21.10
2014,05,31,15,54,21.00
2014,05,31,15,55,20.90
2014,05,31,15,56,20.90
2014,05,31,15,57,20.90
2014,05,31,15,58,20.90
2014,05,31,15,59,20.90
2014,05,31,16,00,20.90
2014,05,31,16,01,20.90
2014,05,31,16,02,20.90
2014,05,31,16,03,20.90
2014,05,31,16,04,20.90
2014,05,31,16,05,20.80
2014,05,31,16,06,20.80
2014,05,31,16,07,20.70
2014,05,31,16,08,20.70
2014,05,31,16,09,20.60
2014,05,31,16,10,20.50
2014,05,31,16,11,20.50
2014,05,31,16,12,20.50
2014,05,31,16,13,20.40
2014,05,31,16,14,20.40
2014,05,31,16,15,20.50
2014,05,31,16,16,20.50
2014,05,31,16,17,20.50
2014,05,31,16,18,20.60
2014,05,31,16,19,20.60
2014,05,31,16,20,20.70
2014,05,31,16,21,20.80
2014,05,31,16,22,20.90
2014,05,31,16,23,21.00
2014,05,31,16,24,21.00
2014,05,31,16,25,21.10
2014,05,31,16,26,21.10
2014,05,31,16,27,21.10
2014,05,31,16,28,21.10
2014,05,31,16,29,21.10
2014,05,31,16,30,21.20
2014,05,31,16,31,21.20
2014,05,31,16,32,21.30
2014,05,31,16,33,21.30
2014,05,31,16,34,21.30
2014,05,31,16,35,21.40
2014,05,31,16,36,21.50
2014,05,31,16,37,21.60
2014,05,31,16,38,21.60
2014,05,31,16,39,21.70
2014,05,31,16,40,21.70
2014,05,31,16,41,21.80
2014,05,31,16,42,21.80
2014,05,31,16,43,21.90
2014,05,31,16,44,21.90
2014,05,31,16,45,22.00
2014,05,31,16,46,22.00
2014,05,31,16,47,22.00
2014,05,31,16,48,22.00
2014,05,31,16,49,22.10
2014,05,31,16,50,22.10
2014,05,31,16,51,22.20
2014,05,31,16,52,22.30
2014,05,31,16,53,22.30
2014,05,31,16,54,22.40
2014,05,31,16,55,22.50
2014,05,31,16,56,22.50
2014,05,31,16,57,22.50
2014,05,31,16,58,22.50
2014,05,31,16,59,22.50
2014,05,31,17,00,22.50
2014,05,31,17,01,22.50
2014,05,31,17,02,22.50
2014,05,31,17,03,22.60
2014,05,31,17,04,22.70
2014,05,31,17,05,22.70
2014,05,31,17,06,22.70
2014,05,31,17,07,22.80
2014,05,31,17,08,22.80
2014,05,31,17,09,22.90
2014,05,31,17,10,22.90
2014,05,31,17,11,23.00
2014,05,31,17,12,23.10
2014,05,31,17,13,23.10
2014,05,31,17,14,23.20
2014,05,31,17,15,23.20
2014,05,31,17,16,23.20
2014,05,31,17,17,23.20
2014,05,31,17,18,23.20
2014,05,31,17,19,23.20
2014,05,31,17,20,23.10
2014,05,31,17,21,23.10
2014,05,31,17,22,23.10
2014,05,31,17,23,23.10
2014,05,31,17,24,23.10
2014,05,31,17,25,23.10
2014,05,31,17,26,23.10
2014,05,31,17,27,23.10
2014,05,31,17,28,23.10
2014,05,31,17,29,23.10
2014,05,31,17,30,22.90
2014,05,31,17,31,22.90
2014,05,31,17,32,22.90
2014,05,31,17,33,22.90
2014,05,31,17,34,23.00